Time,TemperatureF,DewpointF,PressureIn,WindDirection,WindDirectionDegrees,WindSpeedMPH,WindSpeedGustMPH,Humidity,HourlyPrecipIn,Conditions,Clouds,dailyrainin,SoftwareType,DateUTC
2013-12-01 00:00:00,61.3,58.0,30.04,SSE,150,0.0,0.0,89,0.00,,,0.00,Wunderground v.1.15,2013-12-01 06:00:00,
2013-12-01 00:06:00,61.3,58.0,30.04,SSE,150,0.0,0.0,89,0.00,,,0.00,Wunderground v.1.15,2013-12-01 06:06:00,
2013-12-01 00:11:00,61.1,57.8,30.04,SSE,150,0.0,0.0,89,0.00,,,0.00,Wunderground v.1.15,2013-12-01 06:11:00,
2013-12-01 00:17:00,60.8,57.5,30.04,SSE,150,0.0,0.0,89,0.00,,,0.00,Wunderground v.1.15,2013-12-01 06:17:00,
2013-12-01 00:22:00,60.5,57.2,30.03,SSE,150,0.0,0.0,89,0.00,,,0.00,Wunderground v.1.15,2013-12-01 06:22:00,
2013-12-01 00:28:00,60.2,56.9,30.03,SSE,151,0.0,0.0,89,0.00,,,0.00,Wunderground v.1.15,2013-12-01 06:28:00,
2013-12-01 00:34:00,60.0,57.1,30.03,SSE,150,0.0,0.0,90,0.00,,,0.00,Wunderground v.1.15,2013-12-01 06:34:00,
2013-12-01 00:39:00,59.8,56.9,30.03,SSE,150,0.0,0.0,90,0.00,,,0.00,Wunderground v.1.15,2013-12-01 06:39:00,
2013-12-01 00:44:00,59.6,56.7,30.03,SSE,150,0.0,0.0,90,0.00,,,0.00,Wunderground v.1.15,2013-12-01 06:44:00,
2013-12-01 00:50:00,59.7,57.1,30.02,SSE,150,0.0,0.0,91,0.00,,,0.00,Wunderground v.1.15,2013-12-01 06:50:00,
2013-12-01 00:56:00,59.9,57.6,30.02,SSE,150,0.0,0.0,92,0.00,,,0.00,Wunderground v.1.15,2013-12-01 06:56:00,
2013-12-01 01:02:00,59.8,57.2,30.02,SSE,150,0.0,0.0,91,0.00,,,0.00,Wunderground v.1.15,2013-12-01 07:02:00,
2013-12-01 01:08:00,59.8,57.5,30.02,SSE,151,0.0,0.0,92,0.00,,,0.00,Wunderground v.1.15,2013-12-01 07:08:00,
2013-12-01 01:13:00,59.8,57.5,30.01,SE,142,0.0,0.0,92,0.00,,,0.00,Wunderground v.1.15,2013-12-01 07:13:00,
2013-12-01 01:18:00,59.6,57.0,30.01,SE,143,0.0,0.0,91,0.00,,,0.00,Wunderground v.1.15,2013-12-01 07:18:00,
2013-12-01 01:24:00,59.6,57.3,30.01,SE,143,0.0,0.0,92,0.00,,,0.00,Wunderground v.1.15,2013-12-01 07:24:00,
2013-12-01 01:29:00,59.5,57.2,30.00,SE,142,0.0,0.0,92,0.00,,,0.00,Wunderground v.1.15,2013-12-01 07:29:00,
2013-12-01 01:35:00,59.3,57.0,30.01,SE,143,0.0,0.0,92,0.00,,,0.00,Wunderground v.1.15,2013-12-01 07:35:00,
2013-12-01 01:40:00,58.9,56.3,30.01,SE,143,0.0,0.0,91,0.00,,,0.00,Wunderground v.1.15,2013-12-01 07:40:00,
2013-12-01 01:46:00,58.2,55.6,30.00,SE,142,0.0,0.0,91,0.00,,,0.00,Wunderground v.1.15,2013-12-01 07:46:00,
2013-12-01 01:51:00,57.6,55.0,30.00,SE,142,0.0,1.0,91,0.00,,,0.00,Wunderground v.1.15,2013-12-01 07:51:00,
2013-12-01 01:56:00,57.1,54.5,30.00,SE,143,0.0,0.0,91,0.00,,,0.00,Wunderground v.1.15,2013-12-01 07:56:00,
2013-12-01 02:02:00,56.9,54.6,30.00,SE,143,0.0,0.0,92,0.00,,,0.00,Wunderground v.1.15,2013-12-01 08:02:00,
2013-12-01 02:07:00,56.8,54.5,30.00,SE,143,0.0,0.0,92,0.00,,,0.00,Wunderground v.1.15,2013-12-01 08:07:00,
2013-12-01 02:13:00,56.7,54.7,30.00,SE,143,0.0,0.0,93,0.00,,,0.00,Wunderground v.1.15,2013-12-01 08:13:00,
2013-12-01 02:18:00,56.4,54.1,30.00,SE,143,0.0,0.0,92,0.00,,,0.00,Wunderground v.1.15,2013-12-01 08:18:00,
2013-12-01 02:23:00,56.1,54.1,30.00,SE,143,0.0,0.0,93,0.00,,,0.00,Wunderground v.1.15,2013-12-01 08:23:00,
2013-12-01 02:29:00,56.1,54.4,30.00,SE,143,0.0,0.0,94,0.00,,,0.00,Wunderground v.1.15,2013-12-01 08:29:00,
2013-12-01 02:34:00,56.1,54.1,30.00,SE,142,0.0,0.0,93,0.00,,,0.00,Wunderground v.1.15,2013-12-01 08:34:00,
2013-12-01 02:39:00,55.7,53.7,30.01,SSE,153,0.0,0.0,93,0.00,,,0.00,Wunderground v.1.15,2013-12-01 08:39:00,
2013-12-01 02:45:00,55.6,53.9,30.01,SSE,154,0.0,0.0,94,0.00,,,0.00,Wunderground v.1.15,2013-12-01 08:45:00,
2013-12-01 02:50:00,55.3,53.3,30.01,SSE,153,0.0,0.0,93,0.00,,,0.00,Wunderground v.1.15,2013-12-01 08:50:00,
2013-12-01 02:56:00,55.0,53.3,30.00,SSE,153,0.0,0.0,94,0.00,,,0.00,Wunderground v.1.15,2013-12-01 08:56:00,
2013-12-01 03:01:00,55.1,53.4,30.00,SSE,153,0.0,0.0,94,0.00,,,0.00,Wunderground v.1.15,2013-12-01 09:01:00,
2013-12-01 03:05:00,55.1,53.4,30.00,SSE,154,0.0,0.0,94,0.00,,,0.00,Wunderground v.1.15,2013-12-01 09:05:00,
2013-12-01 03:11:00,54.9,53.2,30.00,SSE,153,0.0,0.0,94,0.00,,,0.00,Wunderground v.1.15,2013-12-01 09:11:00,
2013-12-01 03:17:00,54.5,52.8,30.00,SSE,153,0.0,0.0,94,0.00,,,0.00,Wunderground v.1.15,2013-12-01 09:17:00,
2013-12-01 03:22:00,54.2,52.5,30.00,SSE,153,0.0,0.0,94,0.00,,,0.00,Wunderground v.1.15,2013-12-01 09:22:00,
2013-12-01 03:27:00,54.4,53.0,30.01,SSE,154,0.0,0.0,95,0.00,,,0.00,Wunderground v.1.15,2013-12-01 09:27:00,
2013-12-01 03:33:00,54.6,53.2,30.01,SSE,153,0.0,0.0,95,0.00,,,0.00,Wunderground v.1.15,2013-12-01 09:33:00,
2013-12-01 03:38:00,54.4,53.0,30.01,SSE,154,0.0,0.0,95,0.00,,,0.00,Wunderground v.1.15,2013-12-01 09:38:00,
2013-12-01 03:43:00,54.0,52.3,30.01,SSE,154,0.0,0.0,94,0.00,,,0.00,Wunderground v.1.15,2013-12-01 09:43:00,
2013-12-01 03:49:00,53.9,52.5,30.00,SSE,153,0.0,0.0,95,0.00,,,0.00,Wunderground v.1.15,2013-12-01 09:49:00,
2013-12-01 03:54:00,54.2,52.8,30.00,SSE,153,0.0,0.0,95,0.00,,,0.00,Wunderground v.1.15,2013-12-01 09:54:00,
2013-12-01 03:59:00,54.1,52.7,30.00,SSE,153,0.0,0.0,95,0.00,,,0.00,Wunderground v.1.15,2013-12-01 09:59:00,
2013-12-01 04:05:00,54.0,52.6,30.00,SSE,154,0.0,0.0,95,0.00,,,0.00,Wunderground v.1.15,2013-12-01 10:05:00,
2013-12-01 04:10:00,53.9,52.5,30.00,SSE,153,0.0,0.0,95,0.00,,,0.00,Wunderground v.1.15,2013-12-01 10:10:00,
2013-12-01 04:16:00,53.7,52.3,30.01,SSE,153,0.0,0.0,95,0.00,,,0.00,Wunderground v.1.15,2013-12-01 10:16:00,
2013-12-01 04:21:00,53.4,52.0,30.01,SSE,154,0.0,0.0,95,0.00,,,0.00,Wunderground v.1.15,2013-12-01 10:21:00,
2013-12-01 04:27:00,53.4,52.0,30.00,SSE,153,0.0,0.0,95,0.00,,,0.00,Wunderground v.1.15,2013-12-01 10:27:00,
2013-12-01 04:32:00,53.3,51.9,30.00,SSE,154,0.0,0.0,95,0.00,,,0.00,Wunderground v.1.15,2013-12-01 10:32:00,
2013-12-01 04:38:00,53.4,52.0,30.01,SSE,153,0.0,0.0,95,0.00,,,0.00,Wunderground v.1.15,2013-12-01 10:38:00,
2013-12-01 04:43:00,53.4,52.0,30.00,SSE,153,0.0,0.0,95,0.00,,,0.00,Wunderground v.1.15,2013-12-01 10:43:00,
2013-12-01 04:48:00,53.4,52.0,30.00,SSE,154,0.0,0.0,95,0.00,,,0.00,Wunderground v.1.15,2013-12-01 10:48:00,
2013-12-01 04:54:00,53.5,52.4,30.00,SSE,154,0.0,0.0,96,0.00,,,0.00,Wunderground v.1.15,2013-12-01 10:54:00,
2013-12-01 05:00:00,53.6,52.5,30.00,SSE,153,0.0,0.0,96,0.00,,,0.00,Wunderground v.1.15,2013-12-01 11:00:00,
2013-12-01 05:05:00,53.6,52.5,30.00,SSE,154,0.0,0.0,96,0.00,,,0.00,Wunderground v.1.15,2013-12-01 11:05:00,
2013-12-01 05:10:00,53.9,52.8,30.00,SSE,154,0.0,0.0,96,0.00,,,0.00,Wunderground v.1.15,2013-12-01 11:10:00,
2013-12-01 05:16:00,54.2,53.1,30.00,SSE,153,0.0,0.0,96,0.00,,,0.00,Wunderground v.1.15,2013-12-01 11:16:00,
2013-12-01 05:21:00,54.5,53.4,30.00,SSE,153,0.0,0.0,96,0.00,,,0.00,Wunderground v.1.15,2013-12-01 11:21:00,
2013-12-01 05:27:00,54.7,53.6,30.00,SSE,153,0.0,0.0,96,0.00,,,0.00,Wunderground v.1.15,2013-12-01 11:27:00,
2013-12-01 05:32:00,54.9,53.8,29.99,SSE,153,0.0,0.0,96,0.00,,,0.00,Wunderground v.1.15,2013-12-01 11:32:00,
2013-12-01 05:37:00,55.0,53.9,30.00,SSE,154,0.0,0.0,96,0.00,,,0.00,Wunderground v.1.15,2013-12-01 11:37:00,
2013-12-01 05:43:00,55.1,54.0,30.00,SSE,154,0.0,0.0,96,0.00,,,0.00,Wunderground v.1.15,2013-12-01 11:43:00,
2013-12-01 05:48:00,55.3,54.2,29.99,SSE,153,0.0,0.0,96,0.00,,,0.00,Wunderground v.1.15,2013-12-01 11:48:00,
2013-12-01 05:54:00,55.6,54.5,29.99,SSE,154,0.0,0.0,96,0.00,,,0.00,Wunderground v.1.15,2013-12-01 11:54:00,
2013-12-01 05:59:00,55.7,54.6,29.99,SE,146,0.0,0.0,96,0.00,,,0.00,Wunderground v.1.15,2013-12-01 11:59:00,
2013-12-01 06:05:00,56.1,55.0,29.99,ESE,110,0.0,1.0,96,0.00,,,0.00,Wunderground v.1.15,2013-12-01 12:05:00,
2013-12-01 06:11:00,56.4,55.3,29.99,ESE,106,0.0,0.0,96,0.00,,,0.00,Wunderground v.1.15,2013-12-01 12:11:00,
2013-12-01 06:16:00,56.6,55.5,30.00,ESE,106,0.0,0.0,96,0.00,,,0.00,Wunderground v.1.15,2013-12-01 12:16:00,
2013-12-01 06:21:00,56.6,55.5,30.00,ESE,106,0.0,0.0,96,0.00,,,0.00,Wunderground v.1.15,2013-12-01 12:21:00,
2013-12-01 06:27:00,56.7,55.6,30.00,ESE,106,0.0,0.0,96,0.00,,,0.00,Wunderground v.1.15,2013-12-01 12:27:00,
2013-12-01 06:32:00,56.7,55.6,30.00,ESE,105,0.0,0.0,96,0.00,,,0.00,Wunderground v.1.15,2013-12-01 12:32:00,
2013-12-01 06:38:00,56.7,55.6,30.00,ESE,105,0.0,0.0,96,0.00,,,0.00,Wunderground v.1.15,2013-12-01 12:38:00,
2013-12-01 06:43:00,56.7,55.6,30.00,ESE,106,0.0,0.0,96,0.00,,,0.00,Wunderground v.1.15,2013-12-01 12:43:00,
2013-12-01 06:49:00,56.7,55.6,30.01,ESE,106,0.0,0.0,96,0.00,,,0.00,Wunderground v.1.15,2013-12-01 12:49:00,
2013-12-01 06:54:00,56.6,55.5,30.00,ESE,106,0.0,0.0,96,0.00,,,0.00,Wunderground v.1.15,2013-12-01 12:54:00,
2013-12-01 06:59:00,56.5,55.4,30.01,ESE,106,0.0,0.0,96,0.00,,,0.00,Wunderground v.1.15,2013-12-01 12:59:00,
2013-12-01 07:05:00,56.5,55.4,30.00,ESE,106,0.0,0.0,96,0.00,,,0.00,Wunderground v.1.15,2013-12-01 13:05:00,
2013-12-01 07:10:00,56.4,55.3,30.00,ESE,106,0.0,0.0,96,0.00,,,0.00,Wunderground v.1.15,2013-12-01 13:10:00,
2013-12-01 07:15:00,56.4,55.3,30.00,ESE,106,0.0,0.0,96,0.00,,,0.00,Wunderground v.1.15,2013-12-01 13:15:00,
2013-12-01 07:21:00,56.4,55.3,30.00,ESE,106,0.0,0.0,96,0.00,,,0.00,Wunderground v.1.15,2013-12-01 13:21:00,
2013-12-01 07:26:00,56.6,55.5,30.00,ESE,106,0.0,0.0,96,0.00,,,0.00,Wunderground v.1.15,2013-12-01 13:26:00,
2013-12-01 07:31:00,56.7,55.6,30.00,ESE,107,0.0,0.0,96,0.00,,,0.00,Wunderground v.1.15,2013-12-01 13:31:00,
2013-12-01 07:37:00,56.7,55.6,30.00,ESE,108,0.0,0.0,96,0.00,,,0.00,Wunderground v.1.15,2013-12-01 13:37:00,
2013-12-01 07:42:00,56.9,55.8,30.00,ESE,108,0.0,0.0,96,0.00,,,0.00,Wunderground v.1.15,2013-12-01 13:42:00,
2013-12-01 07:47:00,57.0,55.9,30.00,ESE,108,0.0,0.0,96,0.00,,,0.00,Wunderground v.1.15,2013-12-01 13:47:00,
2013-12-01 07:53:00,57.2,56.1,30.01,ESE,108,0.0,0.0,96,0.00,,,0.00,Wunderground v.1.15,2013-12-01 13:53:00,
2013-12-01 07:58:00,57.4,56.3,30.01,ESE,108,0.0,0.0,96,0.00,,,0.00,Wunderground v.1.15,2013-12-01 13:58:00,
2013-12-01 08:04:00,57.7,56.9,30.01,ESE,108,0.0,0.0,97,0.00,,,0.00,Wunderground v.1.15,2013-12-01 14:04:00,
2013-12-01 08:09:00,58.0,57.2,30.02,ESE,107,0.0,0.0,97,0.00,,,0.00,Wunderground v.1.15,2013-12-01 14:09:00,
2013-12-01 08:15:00,58.4,57.6,30.01,ESE,107,0.0,0.0,97,0.00,,,0.00,Wunderground v.1.15,2013-12-01 14:15:00,
2013-12-01 08:20:00,58.7,57.9,30.01,ESE,108,0.0,0.0,97,0.00,,,0.00,Wunderground v.1.15,2013-12-01 14:20:00,
2013-12-01 08:26:00,59.1,58.2,30.01,ESE,108,0.0,0.0,97,0.00,,,0.00,Wunderground v.1.15,2013-12-01 14:26:00,
2013-12-01 08:31:00,59.5,58.6,30.01,ESE,108,0.0,0.0,97,0.00,,,0.00,Wunderground v.1.15,2013-12-01 14:31:00,
2013-12-01 08:37:00,60.0,59.1,30.01,ESE,107,0.0,0.0,97,0.00,,,0.00,Wunderground v.1.15,2013-12-01 14:37:00,
2013-12-01 08:42:00,60.3,59.4,30.01,ESE,108,0.0,0.0,97,0.00,,,0.00,Wunderground v.1.15,2013-12-01 14:42:00,
2013-12-01 08:47:00,60.6,59.5,30.01,ESE,108,0.0,0.0,96,0.00,,,0.00,Wunderground v.1.15,2013-12-01 14:47:00,
2013-12-01 08:53:00,62.0,61.1,30.01,ESE,108,0.0,0.0,97,0.00,,,0.00,Wunderground v.1.15,2013-12-01 14:53:00,
2013-12-01 08:58:00,63.1,62.5,30.01,ESE,108,0.0,0.0,98,0.00,,,0.00,Wunderground v.1.15,2013-12-01 14:58:00,
2013-12-01 09:04:00,64.1,62.9,30.02,ESE,107,0.0,0.0,96,0.00,,,0.00,Wunderground v.1.15,2013-12-01 15:04:00,
2013-12-01 09:09:00,64.7,63.2,30.02,ESE,108,0.0,0.0,95,0.00,,,0.00,Wunderground v.1.15,2013-12-01 15:09:00,
2013-12-01 09:14:00,65.8,64.0,30.02,SW,231,0.0,0.0,94,0.00,,,0.00,Wunderground v.1.15,2013-12-01 15:14:00,
2013-12-01 09:20:00,66.7,64.0,30.02,SSE,147,0.0,0.0,91,0.00,,,0.00,Wunderground v.1.15,2013-12-01 15:20:00,
2013-12-01 09:25:00,67.7,64.0,30.03,East,94,0.0,0.0,88,0.00,,,0.00,Wunderground v.1.15,2013-12-01 15:25:00,
2013-12-01 09:31:00,68.8,64.1,30.03,SSW,193,0.0,0.0,85,0.00,,,0.00,Wunderground v.1.15,2013-12-01 15:31:00,
2013-12-01 09:36:00,69.7,64.0,30.03,SE,143,0.0,0.0,82,0.00,,,0.00,Wunderground v.1.15,2013-12-01 15:36:00,
2013-12-01 09:42:00,70.4,63.9,30.03,South,189,1.0,3.0,80,0.00,,,0.00,Wunderground v.1.15,2013-12-01 15:42:00,
2013-12-01 09:47:00,70.9,63.7,30.02,SSW,193,2.0,3.0,78,0.00,,,0.00,Wunderground v.1.15,2013-12-01 15:47:00,
2013-12-01 09:53:00,71.6,64.0,30.03,South,189,2.0,3.0,77,0.00,,,0.00,Wunderground v.1.15,2013-12-01 15:53:00,
2013-12-01 09:59:00,72.1,63.7,30.02,South,181,2.0,5.0,75,0.00,,,0.00,Wunderground v.1.15,2013-12-01 15:59:00,
2013-12-01 10:05:00,72.7,63.9,30.02,SSE,157,2.0,5.0,74,0.00,,,0.00,Wunderground v.1.15,2013-12-01 16:05:00,
2013-12-01 10:10:00,73.0,63.8,30.02,SE,141,2.0,2.0,73,0.00,,,0.00,Wunderground v.1.15,2013-12-01 16:10:00,
2013-12-01 10:16:00,72.7,63.9,30.02,SSE,148,2.0,2.0,74,0.00,,,0.00,Wunderground v.1.15,2013-12-01 16:16:00,
2013-12-01 10:21:00,72.9,63.7,30.02,SE,128,2.0,4.0,73,0.00,,,0.00,Wunderground v.1.15,2013-12-01 16:21:00,
2013-12-01 10:27:00,72.8,63.2,30.02,ESE,113,3.0,4.0,72,0.00,,,0.00,Wunderground v.1.15,2013-12-01 16:27:00,
2013-12-01 10:32:00,72.7,63.5,30.02,SSE,155,3.0,4.0,73,0.00,,,0.00,Wunderground v.1.15,2013-12-01 16:32:00,
2013-12-01 10:38:00,72.8,63.6,30.01,SE,124,2.0,5.0,73,0.00,,,0.00,Wunderground v.1.15,2013-12-01 16:38:00,
2013-12-01 10:43:00,73.0,63.4,30.01,SSE,163,3.0,5.0,72,0.00,,,0.00,Wunderground v.1.15,2013-12-01 16:43:00,
2013-12-01 10:49:00,72.9,63.7,30.01,SSE,165,3.0,4.0,73,0.00,,,0.00,Wunderground v.1.15,2013-12-01 16:49:00,
2013-12-01 10:54:00,73.1,63.9,30.01,East,99,3.0,6.0,73,0.00,,,0.00,Wunderground v.1.15,2013-12-01 16:54:00,
2013-12-01 11:00:00,73.1,63.5,30.01,South,173,3.0,6.0,72,0.00,,,0.00,Wunderground v.1.15,2013-12-01 17:00:00,
2013-12-01 11:05:00,73.2,63.6,30.01,SSE,166,3.0,6.0,72,0.00,,,0.00,Wunderground v.1.15,2013-12-01 17:05:00,
2013-12-01 11:10:00,73.5,63.9,30.01,SE,127,3.0,5.0,72,0.00,,,0.00,Wunderground v.1.15,2013-12-01 17:10:00,
2013-12-01 11:16:00,73.6,63.6,30.01,SSE,153,3.0,7.0,71,0.00,,,0.00,Wunderground v.1.15,2013-12-01 17:16:00,
2013-12-01 11:21:00,74.1,63.7,30.00,East,91,3.0,8.0,70,0.00,,,0.00,Wunderground v.1.15,2013-12-01 17:21:00,
2013-12-01 11:26:00,74.1,63.7,30.00,South,187,3.0,5.0,70,0.00,,,0.00,Wunderground v.1.15,2013-12-01 17:26:00,
2013-12-01 11:31:00,74.5,64.1,30.00,SSW,211,3.0,9.0,70,0.00,,,0.00,Wunderground v.1.15,2013-12-01 17:31:00,
2013-12-01 11:37:00,74.4,64.0,30.00,South,188,4.0,6.0,70,0.00,,,0.00,Wunderground v.1.15,2013-12-01 17:37:00,
2013-12-01 11:42:00,74.8,64.4,30.00,SW,222,4.0,6.0,70,0.00,,,0.00,Wunderground v.1.15,2013-12-01 17:42:00,
2013-12-01 11:48:00,74.6,63.8,29.99,SSW,197,4.0,6.0,69,0.00,,,0.00,Wunderground v.1.15,2013-12-01 17:48:00,
2013-12-01 11:53:00,74.7,63.9,29.99,SSW,193,4.0,9.0,69,0.00,,,0.00,Wunderground v.1.15,2013-12-01 17:53:00,
2013-12-01 11:58:00,74.6,64.2,29.99,South,180,4.0,9.0,70,0.00,,,0.00,Wunderground v.1.15,2013-12-01 17:58:00,
2013-12-01 12:04:00,75.2,64.3,29.98,SE,128,3.0,9.0,69,0.00,,,0.00,Wunderground v.1.15,2013-12-01 18:04:00,
2013-12-01 12:09:00,75.5,64.2,29.98,SSE,159,3.0,6.0,68,0.00,,,0.00,Wunderground v.1.15,2013-12-01 18:09:00,
2013-12-01 12:14:00,75.1,63.8,29.98,SSE,155,4.0,8.0,68,0.00,,,0.00,Wunderground v.1.15,2013-12-01 18:14:00,
2013-12-01 12:20:00,74.7,63.9,29.98,South,179,5.0,8.0,69,0.00,,,0.00,Wunderground v.1.15,2013-12-01 18:20:00,
2013-12-01 12:25:00,74.7,63.9,29.98,SSW,199,5.0,8.0,69,0.00,,,0.00,Wunderground v.1.15,2013-12-01 18:25:00,
2013-12-01 12:31:00,74.8,64.4,29.98,SSE,153,4.0,7.0,70,0.00,,,0.00,Wunderground v.1.15,2013-12-01 18:31:00,
2013-12-01 12:36:00,75.2,64.3,29.98,SSE,167,4.0,6.0,69,0.00,,,0.00,Wunderground v.1.15,2013-12-01 18:36:00,
2013-12-01 12:42:00,75.0,64.1,29.98,SSW,193,5.0,6.0,69,0.00,,,0.00,Wunderground v.1.15,2013-12-01 18:42:00,
2013-12-01 12:47:00,75.5,64.2,29.97,SE,127,4.0,4.0,68,0.00,,,0.00,Wunderground v.1.15,2013-12-01 18:47:00,
2013-12-01 12:52:00,75.6,64.7,29.97,SSE,153,3.0,6.0,69,0.00,,,0.00,Wunderground v.1.15,2013-12-01 18:52:00,
2013-12-01 12:58:00,75.6,64.3,29.98,SSW,195,4.0,5.0,68,0.00,,,0.00,Wunderground v.1.15,2013-12-01 18:58:00,
2013-12-01 13:04:00,76.2,64.4,29.97,WSW,252,3.0,5.0,67,0.00,,,0.00,Wunderground v.1.15,2013-12-01 19:04:00,
2013-12-01 13:09:00,76.3,64.5,29.96,South,173,3.0,9.0,67,0.00,,,0.00,Wunderground v.1.15,2013-12-01 19:09:00,
2013-12-01 13:14:00,75.9,64.2,29.95,SE,136,4.0,9.0,67,0.00,,,0.00,Wunderground v.1.15,2013-12-01 19:14:00,
2013-12-01 13:20:00,75.6,63.9,29.95,South,183,5.0,8.0,67,0.00,,,0.00,Wunderground v.1.15,2013-12-01 19:20:00,
2013-12-01 13:26:00,74.7,63.9,29.95,SSE,160,5.0,5.0,69,0.00,,,0.00,Wunderground v.1.15,2013-12-01 19:26:00,
2013-12-01 13:31:00,74.4,63.6,29.95,WSW,240,5.0,5.0,69,0.00,,,0.00,Wunderground v.1.15,2013-12-01 19:31:00,
2013-12-01 13:37:00,73.9,63.9,29.95,SSE,157,5.0,9.0,71,0.00,,,0.00,Wunderground v.1.15,2013-12-01 19:37:00,
2013-12-01 13:42:00,73.8,63.8,29.94,ESE,122,5.0,9.0,71,0.00,,,0.00,Wunderground v.1.15,2013-12-01 19:42:00,
2013-12-01 13:43:00,73.8,63.8,29.94,SSW,199,5.0,9.0,71,0.00,,,0.00,Wunderground v.1.15,2013-12-01 19:43:00,
2013-12-01 13:49:00,73.4,63.8,29.95,South,183,4.0,7.0,72,0.00,,,0.00,Wunderground v.1.15,2013-12-01 19:49:00,
2013-12-01 13:55:00,73.3,63.7,29.94,SSW,207,4.0,7.0,72,0.00,,,0.00,Wunderground v.1.15,2013-12-01 19:55:00,
2013-12-01 14:01:00,73.5,63.9,29.94,SSE,160,3.0,5.0,72,0.00,,,0.00,Wunderground v.1.15,2013-12-01 20:01:00,
2013-12-01 14:06:00,73.5,63.9,29.94,SSE,155,3.0,3.0,72,0.00,,,0.00,Wunderground v.1.15,2013-12-01 20:06:00,
2013-12-01 14:12:00,73.6,63.6,29.94,South,181,4.0,5.0,71,0.00,,,0.00,Wunderground v.1.15,2013-12-01 20:12:00,
2013-12-01 14:18:00,73.7,63.7,29.93,South,174,3.0,4.0,71,0.00,,,0.00,Wunderground v.1.15,2013-12-01 20:18:00,
2013-12-01 14:23:00,73.7,63.7,29.93,SSE,151,3.0,8.0,71,0.00,,,0.00,Wunderground v.1.15,2013-12-01 20:23:00,
2013-12-01 14:29:00,73.6,64.0,29.93,SSE,158,4.0,4.0,72,0.00,,,0.00,Wunderground v.1.15,2013-12-01 20:29:00,
2013-12-01 14:34:00,73.7,63.7,29.93,SE,142,4.0,5.0,71,0.00,,,0.00,Wunderground v.1.15,2013-12-01 20:34:00,
2013-12-01 14:39:00,73.3,63.7,29.93,SE,141,4.0,7.0,72,0.00,,,0.00,Wunderground v.1.15,2013-12-01 20:39:00,
2013-12-01 14:45:00,73.3,63.7,29.92,SW,224,4.0,7.0,72,0.00,,,0.00,Wunderground v.1.15,2013-12-01 20:45:00,
2013-12-01 14:51:00,73.3,63.7,29.92,ESE,111,4.0,7.0,72,0.00,,,0.00,Wunderground v.1.15,2013-12-01 20:51:00,
2013-12-01 14:56:00,73.1,63.5,29.92,SSE,160,4.0,4.0,72,0.00,,,0.00,Wunderground v.1.15,2013-12-01 20:56:00,
2013-12-01 15:02:00,72.9,63.7,29.93,SSE,162,4.0,7.0,73,0.00,,,0.00,Wunderground v.1.15,2013-12-01 21:02:00,
2013-12-01 15:07:00,72.8,63.6,29.92,South,185,4.0,4.0,73,0.00,,,0.00,Wunderground v.1.15,2013-12-01 21:07:00,
2013-12-01 15:12:00,72.5,63.7,29.92,SSE,152,3.0,9.0,74,0.00,,,0.00,Wunderground v.1.15,2013-12-01 21:12:00,
2013-12-01 15:18:00,72.3,63.5,29.91,SSW,194,4.0,5.0,74,0.00,,,0.00,Wunderground v.1.15,2013-12-01 21:18:00,
2013-12-01 15:23:00,72.0,63.6,29.91,SE,143,3.0,5.0,75,0.00,,,0.00,Wunderground v.1.15,2013-12-01 21:23:00,
2013-12-01 15:28:00,72.1,63.7,29.91,East,84,3.0,4.0,75,0.00,,,0.00,Wunderground v.1.15,2013-12-01 21:28:00,
2013-12-01 15:34:00,72.3,63.9,29.91,SSW,211,3.0,8.0,75,0.00,,,0.00,Wunderground v.1.15,2013-12-01 21:34:00,
2013-12-01 15:40:00,72.4,63.6,29.90,SSE,165,3.0,4.0,74,0.00,,,0.00,Wunderground v.1.15,2013-12-01 21:40:00,
2013-12-01 15:45:00,72.6,63.8,29.91,SSE,160,3.0,6.0,74,0.00,,,0.00,Wunderground v.1.15,2013-12-01 21:45:00,
2013-12-01 15:51:00,72.4,63.6,29.91,SSE,166,3.0,9.0,74,0.00,,,0.00,Wunderground v.1.15,2013-12-01 21:51:00,
2013-12-01 15:57:00,72.2,63.8,29.91,SSE,162,3.0,3.0,75,0.00,,,0.00,Wunderground v.1.15,2013-12-01 21:57:00,
2013-12-01 16:02:00,72.3,63.9,29.90,SSE,153,2.0,3.0,75,0.00,,,0.00,Wunderground v.1.15,2013-12-01 22:02:00,
2013-12-01 16:07:00,72.1,63.4,29.90,SSE,167,3.0,4.0,74,0.00,,,0.00,Wunderground v.1.15,2013-12-01 22:07:00,
2013-12-01 16:13:00,72.0,63.6,29.90,SE,142,3.0,6.0,75,0.00,,,0.00,Wunderground v.1.15,2013-12-01 22:13:00,
2013-12-01 16:18:00,71.4,63.4,29.90,SSE,167,3.0,3.0,76,0.00,,,0.00,Wunderground v.1.15,2013-12-01 22:18:00,
2013-12-01 16:24:00,71.2,63.6,29.90,SE,146,2.0,3.0,77,0.00,,,0.00,Wunderground v.1.15,2013-12-01 22:24:00,
2013-12-01 16:29:00,71.0,63.4,29.90,SSE,155,3.0,4.0,77,0.00,,,0.00,Wunderground v.1.15,2013-12-01 22:29:00,
2013-12-01 16:34:00,70.9,63.7,29.90,SE,143,3.0,6.0,78,0.00,,,0.00,Wunderground v.1.15,2013-12-01 22:34:00,
2013-12-01 16:40:00,70.7,63.5,29.90,SE,144,2.0,3.0,78,0.00,,,0.00,Wunderground v.1.15,2013-12-01 22:40:00,
2013-12-01 16:46:00,70.5,63.3,29.90,ESE,120,2.0,2.0,78,0.00,,,0.00,Wunderground v.1.15,2013-12-01 22:46:00,
2013-12-01 16:51:00,70.1,63.3,29.90,South,191,2.0,5.0,79,0.00,,,0.00,Wunderground v.1.15,2013-12-01 22:51:00,
2013-12-01 16:56:00,69.8,63.3,29.90,SSE,162,2.0,2.0,80,0.00,,,0.00,Wunderground v.1.15,2013-12-01 22:56:00,
2013-12-01 17:02:00,69.4,63.3,29.89,SSW,210,2.0,4.0,81,0.00,,,0.00,Wunderground v.1.15,2013-12-01 23:02:00,
2013-12-01 17:08:00,69.1,63.0,29.89,ESE,117,2.0,3.0,81,0.00,,,0.00,Wunderground v.1.15,2013-12-01 23:08:00,
2013-12-01 17:13:00,68.9,63.2,29.88,SSE,148,1.0,3.0,82,0.00,,,0.00,Wunderground v.1.15,2013-12-01 23:13:00,
2013-12-01 17:18:00,68.6,63.2,29.89,South,171,1.0,1.0,83,0.00,,,0.00,Wunderground v.1.15,2013-12-01 23:18:00,
2013-12-01 17:24:00,68.2,63.2,29.89,SE,139,1.0,4.0,84,0.00,,,0.00,Wunderground v.1.15,2013-12-01 23:24:00,
2013-12-01 17:30:00,67.8,63.1,29.89,SE,126,1.0,2.0,85,0.00,,,0.00,Wunderground v.1.15,2013-12-01 23:30:00,
2013-12-01 17:35:00,67.5,63.2,29.88,SSW,197,1.0,2.0,86,0.00,,,0.00,Wunderground v.1.15,2013-12-01 23:35:00,
2013-12-01 17:40:00,67.3,63.0,29.88,SE,132,1.0,3.0,86,0.00,,,0.00,Wunderground v.1.15,2013-12-01 23:40:00,
2013-12-01 17:46:00,67.0,63.0,29.88,SSE,163,1.0,2.0,87,0.00,,,0.00,Wunderground v.1.15,2013-12-01 23:46:00,
2013-12-01 17:52:00,66.7,62.7,29.88,SE,133,0.0,4.0,87,0.00,,,0.00,Wunderground v.1.15,2013-12-01 23:52:00,
2013-12-01 17:57:00,66.5,62.8,29.88,SE,143,0.0,0.0,88,0.00,,,0.00,Wunderground v.1.15,2013-12-01 23:57:00,
2013-12-01 18:03:00,66.2,62.5,29.88,SE,137,0.0,1.0,88,0.00,,,0.00,Wunderground v.1.15,2013-12-02 00:03:00,
2013-12-01 18:09:00,66.0,62.7,29.89,SSE,167,0.0,0.0,89,0.00,,,0.00,Wunderground v.1.15,2013-12-02 00:09:00,
2013-12-01 18:14:00,65.9,62.6,29.89,ESE,117,0.0,1.0,89,0.00,,,0.00,Wunderground v.1.15,2013-12-02 00:14:00,
2013-12-01 18:20:00,65.7,62.7,29.88,SE,125,0.0,0.0,90,0.00,,,0.00,Wunderground v.1.15,2013-12-02 00:20:00,
2013-12-01 18:25:00,65.6,62.6,29.88,SSE,150,0.0,0.0,90,0.00,,,0.00,Wunderground v.1.15,2013-12-02 00:25:00,
2013-12-01 18:31:00,65.4,62.4,29.88,SE,139,0.0,0.0,90,0.00,,,0.00,Wunderground v.1.15,2013-12-02 00:31:00,
2013-12-01 18:36:00,65.2,62.2,29.89,SE,141,0.0,0.0,90,0.00,,,0.00,Wunderground v.1.15,2013-12-02 00:36:00,
2013-12-01 18:42:00,65.2,62.5,29.88,ESE,117,0.0,2.0,91,0.00,,,0.00,Wunderground v.1.15,2013-12-02 00:42:00,
2013-12-01 18:47:00,65.1,62.4,29.88,ESE,112,1.0,1.0,91,0.00,,,0.00,Wunderground v.1.15,2013-12-02 00:47:00,
2013-12-01 18:52:00,65.1,62.4,29.88,SE,134,0.0,1.0,91,0.00,,,0.00,Wunderground v.1.15,2013-12-02 00:52:00,
2013-12-01 18:58:00,65.0,62.6,29.88,SE,124,0.0,0.0,92,0.00,,,0.00,Wunderground v.1.15,2013-12-02 00:58:00,
2013-12-01 19:03:00,64.9,62.5,29.89,SE,145,0.0,0.0,92,0.00,,,0.00,Wunderground v.1.15,2013-12-02 01:03:00,
2013-12-01 19:09:00,64.7,62.3,29.88,SE,124,0.0,0.0,92,0.00,,,0.00,Wunderground v.1.15,2013-12-02 01:09:00,
2013-12-01 19:14:00,64.6,62.2,29.88,SE,129,0.0,1.0,92,0.00,,,0.00,Wunderground v.1.15,2013-12-02 01:14:00,
2013-12-01 19:20:00,64.5,62.1,29.88,SE,128,0.0,1.0,92,0.00,,,0.00,Wunderground v.1.15,2013-12-02 01:20:00,
2013-12-01 19:25:00,64.4,62.3,29.88,SE,131,0.0,0.0,93,0.00,,,0.00,Wunderground v.1.15,2013-12-02 01:25:00,
2013-12-01 19:30:00,64.4,62.3,29.88,SE,135,0.0,2.0,93,0.00,,,0.00,Wunderground v.1.15,2013-12-02 01:30:00,
2013-12-01 19:36:00,64.3,62.2,29.87,ESE,118,0.0,1.0,93,0.00,,,0.00,Wunderground v.1.15,2013-12-02 01:36:00,
2013-12-01 19:41:00,64.3,62.2,29.87,SSE,148,1.0,2.0,93,0.00,,,0.00,Wunderground v.1.15,2013-12-02 01:41:00,
2013-12-01 19:46:00,64.3,62.2,29.87,SE,143,1.0,2.0,93,0.00,,,0.00,Wunderground v.1.15,2013-12-02 01:46:00,
2013-12-01 19:52:00,64.3,62.5,29.87,SE,145,0.0,2.0,94,0.00,,,0.00,Wunderground v.1.15,2013-12-02 01:52:00,
2013-12-01 19:58:00,64.2,62.4,29.87,SW,236,0.0,1.0,94,0.00,,,0.00,Wunderground v.1.15,2013-12-02 01:58:00,
2013-12-01 20:03:00,64.1,62.3,29.87,South,190,0.0,1.0,94,0.00,,,0.00,Wunderground v.1.15,2013-12-02 02:03:00,
2013-12-01 20:08:00,64.0,62.2,29.87,SSE,152,0.0,1.0,94,0.00,,,0.00,Wunderground v.1.15,2013-12-02 02:08:00,
2013-12-01 20:14:00,63.9,62.1,29.87,SW,214,0.0,2.0,94,0.00,,,0.00,Wunderground v.1.15,2013-12-02 02:14:00,
2013-12-01 20:19:00,63.9,62.1,29.88,SSW,207,0.0,3.0,94,0.00,,,0.00,Wunderground v.1.15,2013-12-02 02:19:00,
2013-12-01 20:25:00,63.9,62.1,29.87,ESE,106,1.0,3.0,94,0.00,,,0.00,Wunderground v.1.15,2013-12-02 02:25:00,
2013-12-01 20:30:00,63.9,62.1,29.87,SSW,197,1.0,1.0,94,0.00,,,0.00,Wunderground v.1.15,2013-12-02 02:30:00,
2013-12-01 20:36:00,64.1,62.3,29.87,SSW,203,1.0,1.0,94,0.00,,,0.00,Wunderground v.1.15,2013-12-02 02:36:00,
2013-12-01 20:41:00,64.2,62.4,29.87,SE,135,1.0,1.0,94,0.00,,,0.00,Wunderground v.1.15,2013-12-02 02:41:00,
2013-12-01 20:47:00,64.4,62.6,29.87,SSW,200,1.0,1.0,94,0.00,,,0.00,Wunderground v.1.15,2013-12-02 02:47:00,
2013-12-01 20:52:00,64.5,62.7,29.87,South,186,2.0,4.0,94,0.00,,,0.00,Wunderground v.1.15,2013-12-02 02:52:00,
2013-12-01 20:58:00,64.7,62.6,29.87,SSE,167,2.0,2.0,93,0.00,,,0.00,Wunderground v.1.15,2013-12-02 02:58:00,
2013-12-01 21:03:00,64.7,62.6,29.87,South,177,2.0,4.0,93,0.00,,,0.00,Wunderground v.1.15,2013-12-02 03:03:00,
2013-12-01 21:09:00,64.9,62.8,29.87,SSW,198,2.0,4.0,93,0.00,,,0.00,Wunderground v.1.15,2013-12-02 03:09:00,
2013-12-01 21:14:00,65.0,62.9,29.86,ESE,113,3.0,6.0,93,0.00,,,0.00,Wunderground v.1.15,2013-12-02 03:14:00,
2013-12-01 21:20:00,65.1,62.7,29.87,SE,139,3.0,5.0,92,0.00,,,0.00,Wunderground v.1.15,2013-12-02 03:20:00,
2013-12-01 21:25:00,65.2,62.8,29.87,SE,124,3.0,5.0,92,0.00,,,0.00,Wunderground v.1.15,2013-12-02 03:25:00,
2013-12-01 21:31:00,65.2,62.8,29.86,South,188,2.0,4.0,92,0.00,,,0.00,Wunderground v.1.15,2013-12-02 03:31:00,
2013-12-01 21:36:00,65.3,62.6,29.86,SW,221,3.0,3.0,91,0.00,,,0.00,Wunderground v.1.15,2013-12-02 03:36:00,
2013-12-01 21:42:00,65.2,62.5,29.86,SSE,160,2.0,4.0,91,0.00,,,0.00,Wunderground v.1.15,2013-12-02 03:42:00,
2013-12-01 21:47:00,65.1,62.4,29.86,SSW,198,2.0,5.0,91,0.00,,,0.00,Wunderground v.1.15,2013-12-02 03:47:00,
2013-12-01 21:53:00,65.0,62.3,29.86,South,190,3.0,5.0,91,0.00,,,0.00,Wunderground v.1.15,2013-12-02 03:53:00,
2013-12-01 21:58:00,65.0,62.3,29.87,SW,224,3.0,5.0,91,0.00,,,0.00,Wunderground v.1.15,2013-12-02 03:58:00,
2013-12-01 22:03:00,65.0,62.3,29.87,SW,218,2.0,5.0,91,0.00,,,0.00,Wunderground v.1.15,2013-12-02 04:03:00,
2013-12-01 22:09:00,64.8,62.1,29.87,SSW,198,2.0,4.0,91,0.00,,,0.00,Wunderground v.1.15,2013-12-02 04:09:00,
2013-12-01 22:14:00,64.7,62.0,29.87,SSW,193,2.0,5.0,91,0.00,,,0.00,Wunderground v.1.15,2013-12-02 04:14:00,
2013-12-01 22:20:00,64.5,61.8,29.87,SW,225,2.0,4.0,91,0.00,,,0.00,Wunderground v.1.15,2013-12-02 04:20:00,
2013-12-01 22:25:00,64.3,61.6,29.87,South,183,2.0,4.0,91,0.00,,,0.00,Wunderground v.1.15,2013-12-02 04:25:00,
2013-12-01 22:31:00,64.1,61.7,29.87,SSW,195,2.0,6.0,92,0.00,,,0.00,Wunderground v.1.15,2013-12-02 04:31:00,
2013-12-01 22:36:00,64.1,61.7,29.87,SSW,210,2.0,3.0,92,0.00,,,0.00,Wunderground v.1.15,2013-12-02 04:36:00,
2013-12-01 22:42:00,64.1,61.7,29.86,SW,215,2.0,5.0,92,0.00,,,0.00,Wunderground v.1.15,2013-12-02 04:42:00,
2013-12-01 22:47:00,64.2,61.8,29.86,South,179,2.0,2.0,92,0.00,,,0.00,Wunderground v.1.15,2013-12-02 04:47:00,
2013-12-01 22:53:00,64.3,61.9,29.86,South,181,3.0,5.0,92,0.00,,,0.00,Wunderground v.1.15,2013-12-02 04:53:00,
2013-12-01 22:58:00,64.5,62.1,29.86,South,181,3.0,3.0,92,0.00,,,0.00,Wunderground v.1.15,2013-12-02 04:58:00,
2013-12-01 23:01:00,64.5,62.1,29.85,SSW,194,3.0,4.0,92,0.00,,,0.00,Wunderground v.1.15,2013-12-02 05:01:00,
2013-12-01 23:03:00,64.5,62.1,29.86,South,177,3.0,5.0,92,0.00,,,0.00,Wunderground v.1.15,2013-12-02 05:03:00,
2013-12-01 23:04:00,64.6,62.2,29.86,South,186,3.0,5.0,92,0.00,,,0.00,Wunderground v.1.15,2013-12-02 05:04:00,
2013-12-01 23:06:00,64.6,62.2,29.85,SSW,204,3.0,3.0,92,0.00,,,0.00,Wunderground v.1.15,2013-12-02 05:06:00,
2013-12-01 23:10:00,64.7,62.0,29.85,SSW,201,4.0,4.0,91,0.00,,,0.00,Wunderground v.1.15,2013-12-02 05:10:00,
2013-12-01 23:12:00,64.8,62.1,29.85,SSE,156,4.0,6.0,91,0.00,,,0.00,Wunderground v.1.15,2013-12-02 05:12:00,
2013-12-01 23:18:00,64.9,62.2,29.85,South,181,4.0,8.0,91,0.00,,,0.00,Wunderground v.1.15,2013-12-02 05:18:00,
2013-12-01 23:23:00,64.8,62.1,29.85,SSE,165,4.0,8.0,91,0.00,,,0.00,Wunderground v.1.15,2013-12-02 05:23:00,
2013-12-01 23:28:00,64.7,62.0,29.84,SSW,202,3.0,3.0,91,0.00,,,0.00,Wunderground v.1.15,2013-12-02 05:28:00,
2013-12-01 23:34:00,64.7,62.0,29.84,SSW,204,3.0,5.0,91,0.00,,,0.00,Wunderground v.1.15,2013-12-02 05:34:00,
2013-12-01 23:39:00,64.6,61.9,29.84,SSW,210,3.0,4.0,91,0.00,,,0.00,Wunderground v.1.15,2013-12-02 05:39:00,
2013-12-01 23:44:00,64.6,62.2,29.83,SW,221,3.0,5.0,92,0.00,,,0.00,Wunderground v.1.15,2013-12-02 05:44:00,
2013-12-01 23:50:00,64.5,62.1,29.83,SSW,203,2.0,4.0,92,0.00,,,0.00,Wunderground v.1.15,2013-12-02 05:50:00,
2013-12-01 23:55:00,64.5,62.1,29.83,South,190,3.0,5.0,92,0.00,,,0.00,Wunderground v.1.15,2013-12-02 05:55:00,